Showing default

MINXSS-2, 43758

Orbit data source: Space-Track

MINXSS-2, 43758 is a payload satellite owned by CU-LASP (US) in SSO that was launched on Mon, 03 Dec 2018 UTC via an FALCON 9 launch vehicle from the Air Force Western Test Range (AFWTR). Payload-class satellites include a variety of spacecraft equipped with specific instruments for various scientific and technological missions. These include communications satellites like Starlink; space stations such as the ISS; scientific satellites like the Hubble; Earth observation satellites from companies like Planet Labs, Umbra, and HawkEye 360; GPS; miniature CubeSats for education and research; and military/defense satellites.

Loading next visibility...
Identifier
43758, 2018-099A
Orbit
SSO
Country
Flag of USUS
Related business
Manufacturer
CU-LASP
Mission
Operational Amateur Astronomy
Bus & Motor
CUBESAT 3U, Unknown motor
Mass
3.52 kg wet, 3.52 kg dry
Launch date (UTC)
2018-12-03 (7 years ago)
Launch vehicle
FALCON 9
Launch site
Air Force Western Test Range (AFWTR)
Object type
Payload
Rocket body
Debris
Shape & HBR
Box + 2 Pan + 1 Ant, 0.4 m
Radar Cross Section
0.075 m², Medium (>0.1 m² and < 1m²)

Expand to show TLE details & history
Last TLE update: 9 hours ago

TLE from 9 hours ago
0 MINXSS-2
1 43758U 18099A   25287.85969555  .00024854  00000-0  83870-3 0  9992
2 43758  97.4881 354.5789 0011468  71.2951 288.9534 15.30625343376403
Epoch: 2025-10-14T20:37Z
TLE epoch observation values (Epoch: 2025-10-14T20:37:57.695Z)
Latitude
0.00004°
Longitude
21.44643°
Altitude
474.503 km
Speed
7.63 km/s
True Right ascension
23h 38m 18s
True Declination
0° 00' 00"
Sunlit
Object was in full shadow at epoch
Visualization orbit readout
Latitude
Unknown
Longitude
Unknown
Altitude
Unknown
Speed
Unknown
Apparent Right ascension
Unknown
Apparent Declination
Unknown
Sunlit
N/A
Visualization observer readout
Local Sidereal Time
00:38:20
Azimuth
Unknown
Elevation
Unknown
Doppler factor
Unknown
Orbital elements
Apogee altitude
478.755 km
Perigee altitude
463.046 km
Semi-major axis
6,849.038 km
Eccentricity
0.00115
Inclination
97.4881°
RAAN
354.5789°
Arg. of periapsis
71.2951°
True anomaly
288.82905°
Mean anomaly
288.9534°
Eccentric anomaly
288.89123°
Mean motion
3.82912 °/min
Orbital period
94.02 mins
BSTAR
0.0008387
Loading maneuver chart data...
Computing Atmospheric mass density...
Loading historical data...
Loading historical data...
Loading historical data...
Loading historical data...
Loading historical data...
Loading historical data...
Loading historical data...

Documentation

Showing up to 5 results
|